Time,TemperatureF,DewpointF,PressureIn,WindDirection,WindDirectionDegrees,WindSpeedMPH,WindSpeedGustMPH,Humidity,HourlyPrecipIn,Conditions,Clouds,dailyrainin,SoftwareType,DateUTC
2013-05-09 00:00:00,72.6,58.8,29.87,SSE,159,7.0,8.0,62,0.00,,,0.00,Wunderground v.1.15,2013-05-09 05:00:00,
2013-05-09 00:10:00,72.5,59.2,29.87,SSE,157,6.0,8.0,63,0.00,,,0.00,Wunderground v.1.15,2013-05-09 05:10:00,
2013-05-09 00:14:00,72.4,59.0,29.87,South,185,8.0,10.0,63,0.00,,,0.00,weatherlink.com 1.10,2013-05-09 05:14:00,
2013-05-09 00:20:00,72.3,59.0,29.87,SSE,157,5.0,5.0,63,0.00,,,0.00,Wunderground v.1.15,2013-05-09 05:20:00,
2013-05-09 00:25:00,72.2,59.3,29.87,SSE,161,5.0,6.0,64,0.00,,,0.00,Wunderground v.1.15,2013-05-09 05:25:00,
2013-05-09 00:29:00,72.1,59.0,29.86,SSE,164,6.0,10.0,64,0.00,,,0.00,weatherlink.com 1.10,2013-05-09 05:29:00,
2013-05-09 00:30:00,72.1,59.2,29.86,South,185,6.0,7.0,64,0.00,,,0.00,Wunderground v.1.15,2013-05-09 05:30:00,
2013-05-09 00:40:00,71.9,59.5,29.86,SE,145,6.0,6.0,65,0.00,,,0.00,Wunderground v.1.15,2013-05-09 05:40:00,
2013-05-09 00:44:00,71.9,59.0,29.86,SSE,154,3.0,13.0,65,0.00,,,0.00,weatherlink.com 1.10,2013-05-09 05:44:00,
2013-05-09 00:50:00,71.8,59.4,29.85,SSE,159,6.0,7.0,65,0.00,,,0.00,Wunderground v.1.15,2013-05-09 05:50:00,
2013-05-09 00:59:00,71.7,59.0,29.85,South,175,6.0,11.0,65,0.00,,,0.00,weatherlink.com 1.10,2013-05-09 05:59:00,
2013-05-09 01:00:00,71.7,59.3,29.85,South,188,6.0,7.0,65,0.00,,,0.00,Wunderground v.1.15,2013-05-09 06:00:00,
2013-05-09 01:05:00,71.7,59.3,29.85,SSE,155,6.0,7.0,65,0.00,,,0.00,Wunderground v.1.15,2013-05-09 06:05:00,
2013-05-09 01:10:00,71.7,59.3,29.85,SE,138,5.0,5.0,65,0.00,,,0.00,Wunderground v.1.15,2013-05-09 06:10:00,
2013-05-09 01:14:00,71.7,59.0,29.85,South,183,6.0,10.0,65,0.00,,,0.00,weatherlink.com 1.10,2013-05-09 06:14:00,
2013-05-09 01:20:00,71.6,59.2,29.85,SSE,155,6.0,9.0,65,0.00,,,0.00,Wunderground v.1.15,2013-05-09 06:20:00,
2013-05-09 01:25:00,71.5,59.1,29.84,South,169,6.0,10.0,65,0.00,,,0.00,Wunderground v.1.15,2013-05-09 06:25:00,
2013-05-09 01:31:00,71.3,59.0,29.84,South,180,7.0,12.0,66,0.00,,,0.00,weatherlink.com 1.10,2013-05-09 06:31:00,
2013-05-09 01:40:00,71.1,59.2,29.84,South,170,7.0,7.0,66,0.00,,,0.00,Wunderground v.1.15,2013-05-09 06:40:00,
2013-05-09 01:45:00,71.0,59.5,29.84,SSE,164,7.0,7.0,67,0.00,,,0.00,Wunderground v.1.15,2013-05-09 06:45:00,
2013-05-09 01:46:00,70.9,59.0,29.84,South,186,7.0,11.0,67,0.00,,,0.00,weatherlink.com 1.10,2013-05-09 06:46:00,
2013-05-09 01:55:00,70.8,58.9,29.84,ESE,118,7.0,10.0,66,0.00,,,0.00,Wunderground v.1.15,2013-05-09 06:55:00,
2013-05-09 02:00:00,70.8,58.9,29.84,South,175,6.0,6.0,66,0.00,,,0.00,Wunderground v.1.15,2013-05-09 07:00:00,
2013-05-09 02:01:00,70.8,59.0,29.84,South,169,6.0,10.0,66,0.00,,,0.00,weatherlink.com 1.10,2013-05-09 07:01:00,
2013-05-09 02:10:00,70.7,58.8,29.84,SE,142,5.0,5.0,66,0.00,,,0.00,Wunderground v.1.15,2013-05-09 07:10:00,
2013-05-09 02:16:00,70.6,59.0,29.84,SSE,163,5.0,7.0,66,0.00,,,0.00,weatherlink.com 1.10,2013-05-09 07:16:00,
2013-05-09 02:20:00,70.5,59.0,29.85,SSE,167,3.0,5.0,67,0.00,,,0.00,Wunderground v.1.15,2013-05-09 07:20:00,
2013-05-09 02:30:00,70.3,58.8,29.85,ESE,123,2.0,2.0,67,0.00,,,0.00,Wunderground v.1.15,2013-05-09 07:30:00,
2013-05-09 02:31:00,70.3,59.0,29.85,ESE,123,1.0,4.0,67,0.00,,,0.00,weatherlink.com 1.10,2013-05-09 07:31:00,
2013-05-09 02:40:00,70.2,58.7,29.85,SE,142,2.0,2.0,67,0.00,,,0.00,Wunderground v.1.15,2013-05-09 07:40:00,
2013-05-09 02:45:00,70.1,59.0,29.85,SE,136,2.0,3.0,68,0.00,,,0.00,Wunderground v.1.15,2013-05-09 07:45:00,
2013-05-09 02:46:00,70.1,59.0,29.85,SE,136,0.0,3.0,68,0.00,,,0.00,weatherlink.com 1.10,2013-05-09 07:46:00,
2013-05-09 02:50:00,70.1,59.0,29.85,ESE,114,2.0,2.0,68,0.00,,,0.00,Wunderground v.1.15,2013-05-09 07:50:00,
2013-05-09 03:00:00,69.7,58.7,29.85,SE,132,3.0,4.0,68,0.00,,,0.00,Wunderground v.1.15,2013-05-09 08:00:00,
2013-05-09 03:01:00,69.7,59.0,29.85,ESE,118,4.0,7.0,69,0.00,,,0.00,weatherlink.com 1.10,2013-05-09 08:01:00,
2013-05-09 03:10:00,69.6,59.0,29.85,SE,146,5.0,5.0,69,0.00,,,0.00,Wunderground v.1.15,2013-05-09 08:10:00,
2013-05-09 03:15:00,69.5,58.9,29.85,SE,128,4.0,5.0,69,0.00,,,0.00,Wunderground v.1.15,2013-05-09 08:15:00,
2013-05-09 03:16:00,69.5,59.0,29.85,SE,126,4.0,7.0,69,0.00,,,0.00,weatherlink.com 1.10,2013-05-09 08:16:00,
2013-05-09 03:20:00,69.4,58.8,29.86,SSE,157,4.0,8.0,69,0.00,,,0.00,Wunderground v.1.15,2013-05-09 08:20:00,
2013-05-09 03:25:00,69.4,58.8,29.86,SE,129,4.0,8.0,69,0.00,,,0.00,Wunderground v.1.15,2013-05-09 08:25:00,
2013-05-09 03:30:00,69.2,59.0,29.86,SE,134,4.0,4.0,70,0.00,,,0.00,Wunderground v.1.15,2013-05-09 08:30:00,
2013-05-09 03:31:00,69.2,59.0,29.86,SSE,162,4.0,7.0,70,0.00,,,0.00,weatherlink.com 1.10,2013-05-09 08:31:00,
2013-05-09 03:40:00,69.0,58.8,29.86,SE,130,4.0,4.0,70,0.00,,,0.00,Wunderground v.1.15,2013-05-09 08:40:00,
2013-05-09 03:46:00,68.9,59.0,29.85,SE,142,3.0,10.0,70,0.00,,,0.00,weatherlink.com 1.10,2013-05-09 08:46:00,
2013-05-09 03:55:00,68.6,58.8,29.85,SSE,155,4.0,7.0,71,0.00,,,0.00,Wunderground v.1.15,2013-05-09 08:55:00,
2013-05-09 04:00:00,68.4,58.6,29.85,South,183,5.0,6.0,71,0.00,,,0.00,Wunderground v.1.15,2013-05-09 09:00:00,
2013-05-09 04:01:00,68.4,59.0,29.85,SE,130,5.0,9.0,71,0.00,,,0.00,weatherlink.com 1.10,2013-05-09 09:01:00,
2013-05-09 04:10:00,68.0,58.2,29.85,South,185,7.0,9.0,71,0.00,,,0.00,Wunderground v.1.15,2013-05-09 09:10:00,
2013-05-09 04:16:00,67.8,58.0,29.85,SSE,156,8.0,11.0,72,0.00,,,0.00,weatherlink.com 1.10,2013-05-09 09:16:00,
2013-05-09 04:20:00,67.7,58.3,29.85,South,175,7.0,7.0,72,0.00,,,0.00,Wunderground v.1.15,2013-05-09 09:20:00,
2013-05-09 04:30:00,67.5,58.2,29.86,SE,132,6.0,6.0,72,0.00,,,0.00,Wunderground v.1.15,2013-05-09 09:30:00,
2013-05-09 04:31:00,67.5,58.0,29.86,SE,128,2.0,10.0,72,0.00,,,0.00,weatherlink.com 1.10,2013-05-09 09:31:00,
2013-05-09 04:40:00,67.3,58.0,29.86,South,169,5.0,6.0,72,0.00,,,0.00,Wunderground v.1.15,2013-05-09 09:40:00,
2013-05-09 04:46:00,67.1,58.0,29.86,SSE,163,3.0,9.0,73,0.00,,,0.00,weatherlink.com 1.10,2013-05-09 09:46:00,
2013-05-09 04:55:00,66.8,57.9,29.86,SE,139,5.0,5.0,73,0.00,,,0.00,Wunderground v.1.15,2013-05-09 09:55:00,
2013-05-09 05:00:00,66.7,57.8,29.86,SSE,159,5.0,7.0,73,0.00,,,0.00,Wunderground v.1.15,2013-05-09 10:00:00,
2013-05-09 05:02:00,66.6,58.0,29.86,SE,127,2.0,8.0,74,0.00,,,0.00,weatherlink.com 1.10,2013-05-09 10:02:00,
2013-05-09 05:10:00,66.5,57.6,29.86,ESE,113,4.0,4.0,73,0.00,,,0.00,Wunderground v.1.15,2013-05-09 10:10:00,
2013-05-09 05:15:00,66.4,57.5,29.86,SE,134,4.0,4.0,73,0.00,,,0.00,Wunderground v.1.15,2013-05-09 10:15:00,
2013-05-09 05:17:00,66.4,58.0,29.86,ESE,117,3.0,8.0,73,0.00,,,0.00,weatherlink.com 1.10,2013-05-09 10:17:00,
2013-05-09 05:25:00,66.2,57.3,29.86,SE,131,4.0,4.0,73,0.00,,,0.00,Wunderground v.1.15,2013-05-09 10:25:00,
2013-05-09 05:30:00,66.1,57.6,29.87,SE,128,3.0,3.0,74,0.00,,,0.00,Wunderground v.1.15,2013-05-09 10:30:00,
2013-05-09 05:32:00,66.1,58.0,29.86,ESE,115,3.0,8.0,74,0.00,,,0.00,weatherlink.com 1.10,2013-05-09 10:32:00,
2013-05-09 05:40:00,65.8,57.3,29.86,SE,144,4.0,4.0,74,0.00,,,0.00,Wunderground v.1.15,2013-05-09 10:40:00,
2013-05-09 05:45:00,65.6,57.1,29.87,SE,141,5.0,5.0,74,0.00,,,0.00,Wunderground v.1.15,2013-05-09 10:45:00,
2013-05-09 05:47:00,65.6,58.0,29.86,ESE,122,4.0,9.0,75,0.00,,,0.00,weatherlink.com 1.10,2013-05-09 10:47:00,
2013-05-09 05:55:00,65.3,57.2,29.87,SE,144,3.0,4.0,75,0.00,,,0.00,Wunderground v.1.15,2013-05-09 10:55:00,
2013-05-09 06:02:00,65.0,57.0,29.87,SE,134,5.0,6.0,76,0.00,,,0.00,weatherlink.com 1.10,2013-05-09 11:02:00,
2013-05-09 06:10:00,64.8,57.1,29.87,SSE,157,4.0,5.0,76,0.00,,,0.00,Wunderground v.1.15,2013-05-09 11:10:00,
2013-05-09 06:15:00,64.7,57.3,29.87,SSE,155,4.0,7.0,77,0.00,,,0.00,Wunderground v.1.15,2013-05-09 11:15:00,
2013-05-09 06:17:00,64.7,57.0,29.87,SE,130,5.0,7.0,77,0.00,,,0.00,weatherlink.com 1.10,2013-05-09 11:17:00,
2013-05-09 06:20:00,64.5,57.1,29.88,ESE,120,5.0,7.0,77,0.00,,,0.00,Wunderground v.1.15,2013-05-09 11:20:00,
2013-05-09 06:25:00,64.5,57.5,29.88,SE,134,4.0,7.0,78,0.00,,,0.00,Wunderground v.1.15,2013-05-09 11:25:00,
2013-05-09 06:30:00,64.4,57.4,29.87,SE,139,3.0,3.0,78,0.00,,,0.00,Wunderground v.1.15,2013-05-09 11:30:00,
2013-05-09 06:32:00,64.4,57.0,29.87,ESE,123,2.0,8.0,78,0.00,,,0.00,weatherlink.com 1.10,2013-05-09 11:32:00,
2013-05-09 06:40:00,64.2,57.5,29.88,ESE,123,4.0,5.0,79,0.00,,,0.00,Wunderground v.1.15,2013-05-09 11:40:00,
2013-05-09 06:45:00,64.1,57.5,29.89,SE,132,4.0,5.0,79,0.00,,,0.00,Wunderground v.1.15,2013-05-09 11:45:00,
2013-05-09 06:49:00,64.1,57.0,29.89,SE,143,5.0,8.0,79,0.00,,,0.00,weatherlink.com 1.10,2013-05-09 11:49:00,
2013-05-09 06:55:00,64.0,57.7,29.89,SE,134,5.0,7.0,80,0.00,,,0.00,Wunderground v.1.15,2013-05-09 11:55:00,
2013-05-09 07:04:00,64.0,58.0,29.89,ESE,121,3.0,8.0,80,0.00,,,0.00,weatherlink.com 1.10,2013-05-09 12:04:00,
2013-05-09 07:10:00,64.0,57.7,29.90,SSE,153,4.0,4.0,80,0.00,,,0.00,Wunderground v.1.15,2013-05-09 12:10:00,
2013-05-09 07:18:00,64.2,58.0,29.90,SSW,192,4.0,7.0,80,0.00,,,0.00,weatherlink.com 1.10,2013-05-09 12:18:00,
2013-05-09 07:25:00,64.3,58.3,29.90,SSE,150,4.0,4.0,81,0.00,,,0.00,Wunderground v.1.15,2013-05-09 12:25:00,
2013-05-09 07:30:00,64.3,58.3,29.90,SSE,155,4.0,5.0,81,0.00,,,0.00,Wunderground v.1.15,2013-05-09 12:30:00,
2013-05-09 07:33:00,64.3,58.0,29.91,SSE,148,3.0,9.0,81,0.00,,,0.00,weatherlink.com 1.10,2013-05-09 12:33:00,
2013-05-09 07:40:00,64.5,58.5,29.91,SSE,153,4.0,4.0,81,0.00,,,0.00,Wunderground v.1.15,2013-05-09 12:40:00,
2013-05-09 07:49:00,64.8,59.0,29.91,SSE,167,2.0,6.0,81,0.00,,,0.00,weatherlink.com 1.10,2013-05-09 12:49:00,
2013-05-09 07:55:00,64.9,58.9,29.91,SE,135,3.0,4.0,81,0.00,,,0.00,Wunderground v.1.15,2013-05-09 12:55:00,
2013-05-09 08:00:00,65.0,59.0,29.91,SSE,166,3.0,5.0,81,0.00,,,0.00,Wunderground v.1.15,2013-05-09 13:00:00,
2013-05-09 08:04:00,65.1,59.0,29.91,SE,139,3.0,8.0,81,0.00,,,0.00,weatherlink.com 1.10,2013-05-09 13:04:00,
2013-05-09 08:10:00,65.2,59.2,29.91,SSE,150,3.0,5.0,81,0.00,,,0.00,Wunderground v.1.15,2013-05-09 13:10:00,
2013-05-09 08:15:00,65.2,59.6,29.92,SE,130,3.0,5.0,82,0.00,,,0.00,Wunderground v.1.15,2013-05-09 13:15:00,
2013-05-09 08:19:00,65.3,59.0,29.92,SE,136,1.0,5.0,81,0.00,,,0.00,weatherlink.com 1.10,2013-05-09 13:19:00,
2013-05-09 08:25:00,65.2,59.6,29.92,SE,128,3.0,4.0,82,0.00,,,0.00,Wunderground v.1.15,2013-05-09 13:25:00,
2013-05-09 08:30:00,65.3,59.7,29.92,East,86,3.0,5.0,82,0.00,,,0.00,Wunderground v.1.15,2013-05-09 13:30:00,
2013-05-09 08:34:00,65.2,60.0,29.92,SE,138,5.0,6.0,82,0.00,,,0.00,weatherlink.com 1.10,2013-05-09 13:34:00,
2013-05-09 08:40:00,65.3,60.0,29.92,SE,135,4.0,6.0,83,0.00,,,0.00,Wunderground v.1.15,2013-05-09 13:40:00,
2013-05-09 08:45:00,65.4,60.1,29.92,SSE,147,4.0,6.0,83,0.00,,,0.00,Wunderground v.1.15,2013-05-09 13:45:00,
2013-05-09 08:49:00,65.5,60.0,29.92,ESE,117,3.0,8.0,82,0.00,,,0.00,weatherlink.com 1.10,2013-05-09 13:49:00,
2013-05-09 08:55:00,65.6,60.0,29.92,SE,136,4.0,5.0,82,0.00,,,0.00,Wunderground v.1.15,2013-05-09 13:55:00,
2013-05-09 09:00:00,65.8,60.2,29.92,SE,142,4.0,4.0,82,0.00,,,0.00,Wunderground v.1.15,2013-05-09 14:00:00,
2013-05-09 09:04:00,65.9,60.0,29.92,ESE,119,3.0,9.0,82,0.00,,,0.00,weatherlink.com 1.10,2013-05-09 14:04:00,
2013-05-09 09:05:00,65.9,60.6,29.92,SE,130,4.0,4.0,83,0.00,,,0.00,Wunderground v.1.15,2013-05-09 14:05:00,
2013-05-09 09:15:00,66.1,60.8,29.92,ESE,114,5.0,6.0,83,0.00,,,0.00,Wunderground v.1.15,2013-05-09 14:15:00,
2013-05-09 09:19:00,66.1,61.0,29.92,SSE,152,2.0,9.0,83,0.00,,,0.00,weatherlink.com 1.10,2013-05-09 14:19:00,
2013-05-09 09:25:00,66.2,60.9,29.92,SE,145,5.0,8.0,83,0.00,,,0.00,Wunderground v.1.15,2013-05-09 14:25:00,
2013-05-09 09:30:00,66.5,61.2,29.92,SSE,161,5.0,7.0,83,0.00,,,0.00,Wunderground v.1.15,2013-05-09 14:30:00,
2013-05-09 09:34:00,66.6,61.0,29.93,SSE,148,6.0,10.0,83,0.00,,,0.00,weatherlink.com 1.10,2013-05-09 14:34:00,
2013-05-09 09:40:00,66.7,61.4,29.92,ESE,123,4.0,5.0,83,0.00,,,0.00,Wunderground v.1.15,2013-05-09 14:40:00,
2013-05-09 09:45:00,66.9,61.6,29.92,SSE,157,4.0,6.0,83,0.00,,,0.00,Wunderground v.1.15,2013-05-09 14:45:00,
2013-05-09 09:49:00,67.0,61.0,29.92,SE,136,5.0,10.0,82,0.00,,,0.00,weatherlink.com 1.10,2013-05-09 14:49:00,
2013-05-09 09:55:00,67.1,61.8,29.91,ESE,120,6.0,9.0,83,0.00,,,0.00,Wunderground v.1.15,2013-05-09 14:55:00,
2013-05-09 10:00:00,67.4,62.1,29.91,SE,127,7.0,9.0,83,0.00,,,0.00,Wunderground v.1.15,2013-05-09 15:00:00,
2013-05-09 10:04:00,67.8,63.0,29.91,SE,139,9.0,13.0,83,0.00,,,0.00,weatherlink.com 1.10,2013-05-09 15:04:00,
2013-05-09 10:10:00,68.5,62.4,29.91,SSE,159,8.0,8.0,81,0.00,,,0.00,Wunderground v.1.15,2013-05-09 15:10:00,
2013-05-09 10:15:00,68.9,62.8,29.91,East,85,9.0,9.0,81,0.00,,,0.00,Wunderground v.1.15,2013-05-09 15:15:00,
2013-05-09 10:19:00,68.9,63.0,29.92,SSE,149,9.0,16.0,81,0.00,,,0.00,weatherlink.com 1.10,2013-05-09 15:19:00,
2013-05-09 10:25:00,68.8,62.7,29.91,South,179,8.0,10.0,81,0.00,,,0.00,Wunderground v.1.15,2013-05-09 15:25:00,
2013-05-09 10:34:00,68.9,63.0,29.92,SE,140,11.0,14.0,81,0.00,,,0.00,weatherlink.com 1.10,2013-05-09 15:34:00,
2013-05-09 10:40:00,68.8,63.1,29.92,SSE,163,9.0,9.0,82,0.00,,,0.00,Wunderground v.1.15,2013-05-09 15:40:00,
2013-05-09 10:45:00,68.8,63.1,29.92,South,172,8.0,9.0,82,0.00,,,0.00,Wunderground v.1.15,2013-05-09 15:45:00,
2013-05-09 10:49:00,68.8,63.0,29.92,South,181,14.0,17.0,82,0.00,,,0.00,weatherlink.com 1.10,2013-05-09 15:49:00,
2013-05-09 10:55:00,68.9,63.2,29.92,South,175,11.0,14.0,82,0.00,,,0.00,Wunderground v.1.15,2013-05-09 15:55:00,
2013-05-09 11:00:00,69.0,63.3,29.91,SSE,163,9.0,9.0,82,0.00,,,0.00,Wunderground v.1.15,2013-05-09 16:00:00,
2013-05-09 11:04:00,68.9,63.0,29.91,SSE,168,8.0,14.0,82,0.00,,,0.00,weatherlink.com 1.10,2013-05-09 16:04:00,
2013-05-09 11:10:00,69.0,63.3,29.90,SSE,159,10.0,10.0,82,0.00,,,0.00,Wunderground v.1.15,2013-05-09 16:10:00,
2013-05-09 11:15:00,69.2,63.5,29.89,SSW,200,10.0,10.0,82,0.00,,,0.00,Wunderground v.1.15,2013-05-09 16:15:00,
2013-05-09 11:19:00,69.4,64.0,29.89,South,170,10.0,16.0,82,0.00,,,0.00,weatherlink.com 1.10,2013-05-09 16:19:00,
2013-05-09 11:25:00,69.5,63.8,29.90,South,188,8.0,10.0,82,0.00,,,0.00,Wunderground v.1.15,2013-05-09 16:25:00,
2013-05-09 11:30:00,69.7,64.0,29.90,South,184,9.0,9.0,82,0.00,,,0.00,Wunderground v.1.15,2013-05-09 16:30:00,
2013-05-09 11:36:00,69.7,64.0,29.91,SSE,152,13.0,21.0,82,0.00,,,0.00,weatherlink.com 1.10,2013-05-09 16:36:00,
2013-05-09 11:45:00,69.5,63.8,29.91,South,175,11.0,15.0,82,0.00,,,0.00,Wunderground v.1.15,2013-05-09 16:45:00,
2013-05-09 11:50:00,69.6,63.9,29.91,South,178,10.0,15.0,82,0.00,,,0.00,Wunderground v.1.15,2013-05-09 16:50:00,
2013-05-09 11:51:00,69.5,64.0,29.91,SSW,206,8.0,17.0,82,0.00,,,0.00,weatherlink.com 1.10,2013-05-09 16:51:00,
2013-05-09 12:00:00,69.4,64.0,29.90,SSW,211,9.0,9.0,83,0.00,,,0.00,Wunderground v.1.15,2013-05-09 17:00:00,
2013-05-09 12:05:00,69.3,63.9,29.90,SSE,167,8.0,9.0,83,0.00,,,0.00,Wunderground v.1.15,2013-05-09 17:05:00,
2013-05-09 12:06:00,69.3,64.0,29.89,SSE,157,8.0,13.0,83,0.00,,,0.00,weatherlink.com 1.10,2013-05-09 17:06:00,
2013-05-09 12:15:00,69.4,64.0,29.91,SSW,209,7.0,8.0,83,0.00,,,0.00,Wunderground v.1.15,2013-05-09 17:15:00,
2013-05-09 12:20:00,69.4,64.0,29.91,SSE,157,6.0,8.0,83,0.00,,,0.00,Wunderground v.1.15,2013-05-09 17:20:00,
2013-05-09 12:21:00,69.4,64.0,29.91,SSE,164,5.0,10.0,83,0.00,,,0.00,weatherlink.com 1.10,2013-05-09 17:21:00,
2013-05-09 12:25:00,69.4,64.0,29.92,South,178,7.0,8.0,83,0.00,,,0.00,Wunderground v.1.15,2013-05-09 17:25:00,
2013-05-09 12:30:00,69.4,64.4,29.92,South,173,7.0,7.0,84,0.00,,,0.00,Wunderground v.1.15,2013-05-09 17:30:00,
2013-05-09 12:35:00,69.3,64.3,29.92,South,178,7.0,7.0,84,0.00,,,0.00,Wunderground v.1.15,2013-05-09 17:35:00,
2013-05-09 12:36:00,69.3,64.0,29.92,SSE,168,5.0,12.0,84,0.00,,,0.00,weatherlink.com 1.10,2013-05-09 17:36:00,
2013-05-09 12:45:00,69.3,64.3,29.92,South,178,8.0,8.0,84,0.00,,,0.00,Wunderground v.1.15,2013-05-09 17:45:00,
2013-05-09 12:50:00,69.4,64.4,29.92,SSE,150,8.0,8.0,84,0.00,,,0.00,Wunderground v.1.15,2013-05-09 17:50:00,
2013-05-09 12:51:00,69.4,64.0,29.92,South,173,5.0,11.0,84,0.00,,,0.00,weatherlink.com 1.10,2013-05-09 17:51:00,
2013-05-09 13:00:00,69.8,64.7,29.92,South,190,7.0,8.0,84,0.00,,,0.00,Wunderground v.1.15,2013-05-09 18:00:00,
2013-05-09 13:05:00,70.1,65.0,29.91,South,178,6.0,8.0,84,0.00,,,0.00,Wunderground v.1.15,2013-05-09 18:05:00,
2013-05-09 13:06:00,70.2,65.0,29.91,South,172,4.0,11.0,84,0.00,,,0.00,weatherlink.com 1.10,2013-05-09 18:06:00,
2013-05-09 13:10:00,70.4,65.0,29.92,SSW,194,5.0,7.0,83,0.00,,,0.00,Wunderground v.1.15,2013-05-09 18:10:00,
2013-05-09 13:15:00,70.6,65.2,29.93,South,179,7.0,8.0,83,0.00,,,0.00,Wunderground v.1.15,2013-05-09 18:15:00,
2013-05-09 13:21:00,70.7,65.0,29.93,South,174,4.0,11.0,83,0.00,,,0.00,weatherlink.com 1.10,2013-05-09 18:21:00,
2013-05-09 13:30:00,71.1,65.7,29.92,SSE,150,5.0,5.0,83,0.00,,,0.00,Wunderground v.1.15,2013-05-09 18:30:00,
2013-05-09 13:35:00,71.2,65.4,29.92,South,169,5.0,6.0,82,0.00,,,0.00,Wunderground v.1.15,2013-05-09 18:35:00,
2013-05-09 13:36:00,71.2,66.0,29.92,SE,144,9.0,10.0,82,0.00,,,0.00,weatherlink.com 1.10,2013-05-09 18:36:00,
2013-05-09 13:45:00,71.3,65.5,29.92,South,188,6.0,9.0,82,0.00,,,0.00,Wunderground v.1.15,2013-05-09 18:45:00,
2013-05-09 13:50:00,71.5,65.7,29.92,South,177,6.0,6.0,82,0.00,,,0.00,Wunderground v.1.15,2013-05-09 18:50:00,
2013-05-09 13:51:00,71.5,66.0,29.92,SSE,153,6.0,10.0,82,0.00,,,0.00,weatherlink.com 1.10,2013-05-09 18:51:00,
2013-05-09 14:00:00,71.5,65.4,29.92,South,182,7.0,7.0,81,0.00,,,0.00,Wunderground v.1.15,2013-05-09 19:00:00,
2013-05-09 14:05:00,71.5,65.4,29.92,SSW,195,7.0,7.0,81,0.00,,,0.00,Wunderground v.1.15,2013-05-09 19:05:00,
2013-05-09 14:06:00,71.6,66.0,29.92,SSW,198,2.0,13.0,81,0.00,,,0.00,weatherlink.com 1.10,2013-05-09 19:06:00,
2013-05-09 14:15:00,71.5,65.4,29.92,South,190,7.0,9.0,81,0.00,,,0.00,Wunderground v.1.15,2013-05-09 19:15:00,
2013-05-09 14:21:00,71.6,65.0,29.92,SSE,167,5.0,15.0,80,0.00,,,0.00,weatherlink.com 1.10,2013-05-09 19:21:00,
2013-05-09 14:25:00,71.6,65.1,29.92,SW,223,8.0,12.0,80,0.00,,,0.00,Wunderground v.1.15,2013-05-09 19:25:00,
2013-05-09 14:30:00,71.5,65.4,29.91,SSW,196,7.0,7.0,81,0.00,,,0.00,Wunderground v.1.15,2013-05-09 19:30:00,
2013-05-09 14:35:00,71.5,65.0,29.91,South,191,7.0,7.0,80,0.00,,,0.00,Wunderground v.1.15,2013-05-09 19:35:00,
2013-05-09 14:36:00,71.5,65.0,29.91,SSW,209,6.0,11.0,81,0.00,,,0.00,weatherlink.com 1.10,2013-05-09 19:36:00,
2013-05-09 14:40:00,71.6,65.1,29.91,SW,219,6.0,6.0,80,0.00,,,0.00,Wunderground v.1.15,2013-05-09 19:40:00,
2013-05-09 14:45:00,71.4,64.9,29.90,South,172,7.0,7.0,80,0.00,,,0.00,Wunderground v.1.15,2013-05-09 19:45:00,
2013-05-09 14:50:00,71.5,65.0,29.90,SSW,193,7.0,7.0,80,0.00,,,0.00,Wunderground v.1.15,2013-05-09 19:50:00,
2013-05-09 14:52:00,71.5,65.0,29.90,South,177,7.0,12.0,81,0.00,,,0.00,weatherlink.com 1.10,2013-05-09 19:52:00,
2013-05-09 15:00:00,71.5,65.4,29.90,SSW,192,7.0,10.0,81,0.00,,,0.00,Wunderground v.1.15,2013-05-09 20:00:00,
2013-05-09 15:05:00,71.6,65.1,29.89,South,169,8.0,10.0,80,0.00,,,0.00,Wunderground v.1.15,2013-05-09 20:05:00,
2013-05-09 15:07:00,71.7,65.0,29.89,South,184,8.0,14.0,79,0.00,,,0.00,weatherlink.com 1.10,2013-05-09 20:07:00,
2013-05-09 15:15:00,72.7,65.4,29.90,South,172,8.0,9.0,78,0.00,,,0.00,Wunderground v.1.15,2013-05-09 20:15:00,
2013-05-09 15:22:00,73.4,65.0,29.89,SSW,202,7.0,15.0,76,0.00,,,0.00,weatherlink.com 1.10,2013-05-09 20:22:00,
2013-05-09 15:30:00,73.7,64.9,29.88,South,182,9.0,11.0,74,0.00,,,0.00,Wunderground v.1.15,2013-05-09 20:30:00,
2013-05-09 15:35:00,73.8,64.6,29.87,SSW,196,10.0,11.0,73,0.00,,,0.00,Wunderground v.1.15,2013-05-09 20:35:00,
2013-05-09 15:37:00,73.8,65.0,29.88,SSW,212,11.0,15.0,73,0.00,,,0.00,weatherlink.com 1.10,2013-05-09 20:37:00,
2013-05-09 15:40:00,73.6,64.4,29.88,SSW,194,10.0,10.0,73,0.00,,,0.00,Wunderground v.1.15,2013-05-09 20:40:00,
2013-05-09 15:45:00,73.4,64.2,29.88,SSW,195,11.0,11.0,73,0.00,,,0.00,Wunderground v.1.15,2013-05-09 20:45:00,
2013-05-09 15:50:00,73.8,63.8,29.88,WSW,246,11.0,11.0,71,0.00,,,0.00,Wunderground v.1.15,2013-05-09 20:50:00,
2013-05-09 15:52:00,74.0,63.0,29.88,SSE,164,13.0,17.0,69,0.00,,,0.00,weatherlink.com 1.10,2013-05-09 20:52:00,
2013-05-09 16:00:00,74.2,62.5,29.88,South,185,11.0,17.0,67,0.00,,,0.00,Wunderground v.1.15,2013-05-09 21:00:00,
2013-05-09 16:05:00,73.7,62.1,29.88,SSW,196,12.0,17.0,67,0.00,,,0.00,Wunderground v.1.15,2013-05-09 21:05:00,
2013-05-09 16:07:00,73.6,62.0,29.88,South,189,10.0,23.0,67,0.00,,,0.00,weatherlink.com 1.10,2013-05-09 21:07:00,
2013-05-09 16:15:00,73.5,61.9,29.89,South,182,11.0,13.0,67,0.00,,,0.00,Wunderground v.1.15,2013-05-09 21:15:00,
2013-05-09 16:22:00,73.4,62.0,29.89,SW,227,6.0,18.0,68,0.00,,,0.00,weatherlink.com 1.10,2013-05-09 21:22:00,
2013-05-09 16:30:00,73.4,62.2,29.89,SSW,204,7.0,7.0,68,0.00,,,0.00,Wunderground v.1.15,2013-05-09 21:30:00,
2013-05-09 16:35:00,73.5,61.9,29.89,SSW,200,6.0,7.0,67,0.00,,,0.00,Wunderground v.1.15,2013-05-09 21:35:00,
2013-05-09 16:37:00,73.5,62.0,29.89,SSW,194,6.0,10.0,67,0.00,,,0.00,weatherlink.com 1.10,2013-05-09 21:37:00,
2013-05-09 16:45:00,73.5,61.4,29.89,WSW,242,4.0,5.0,66,0.00,,,0.00,Wunderground v.1.15,2013-05-09 21:45:00,
2013-05-09 16:54:00,73.4,61.0,29.88,SSW,200,1.0,8.0,65,0.00,,,0.00,weatherlink.com 1.10,2013-05-09 21:54:00,
2013-05-09 17:00:00,73.5,61.0,29.88,SSW,213,4.0,4.0,65,0.00,,,0.00,Wunderground v.1.15,2013-05-09 22:00:00,
2013-05-09 17:05:00,73.4,60.9,29.88,South,178,4.0,4.0,65,0.00,,,0.00,Wunderground v.1.15,2013-05-09 22:05:00,
2013-05-09 17:07:00,73.4,60.0,29.88,South,190,3.0,7.0,64,0.00,,,0.00,weatherlink.com 1.10,2013-05-09 22:07:00,
2013-05-09 17:15:00,73.4,60.9,29.89,South,171,5.0,8.0,65,0.00,,,0.00,Wunderground v.1.15,2013-05-09 22:15:00,
2013-05-09 17:20:00,73.4,60.5,29.89,South,180,5.0,9.0,64,0.00,,,0.00,Wunderground v.1.15,2013-05-09 22:20:00,
2013-05-09 17:24:00,73.5,61.0,29.89,SSE,156,4.0,10.0,64,0.00,,,0.00,weatherlink.com 1.10,2013-05-09 22:24:00,
2013-05-09 17:30:00,73.5,61.0,29.89,SE,133,7.0,8.0,65,0.00,,,0.00,Wunderground v.1.15,2013-05-09 22:30:00,
2013-05-09 17:38:00,73.3,61.0,29.88,SSE,166,7.0,10.0,66,0.00,,,0.00,weatherlink.com 1.10,2013-05-09 22:38:00,
2013-05-09 17:45:00,73.0,61.0,29.88,South,183,6.0,6.0,66,0.00,,,0.00,Wunderground v.1.15,2013-05-09 22:45:00,
2013-05-09 17:50:00,72.8,60.8,29.88,SSE,159,6.0,6.0,66,0.00,,,0.00,Wunderground v.1.15,2013-05-09 22:50:00,
2013-05-09 17:54:00,72.7,61.0,29.87,SE,145,4.0,9.0,67,0.00,,,0.00,weatherlink.com 1.10,2013-05-09 22:54:00,
2013-05-09 18:00:00,72.4,60.8,29.86,ESE,118,5.0,7.0,67,0.00,,,0.00,Wunderground v.1.15,2013-05-09 23:00:00,
2013-05-09 18:05:00,72.1,60.5,29.86,SE,140,6.0,7.0,67,0.00,,,0.00,Wunderground v.1.15,2013-05-09 23:05:00,
2013-05-09 18:09:00,72.0,60.0,29.86,ESE,111,4.0,9.0,67,0.00,,,0.00,weatherlink.com 1.10,2013-05-09 23:09:00,
2013-05-09 18:15:00,72.0,60.9,29.85,ESE,119,5.0,6.0,68,0.00,,,0.00,Wunderground v.1.15,2013-05-09 23:15:00,
2013-05-09 18:20:00,71.8,61.1,29.85,ESE,112,6.0,6.0,69,0.00,,,0.00,Wunderground v.1.15,2013-05-09 23:20:00,
2013-05-09 18:24:00,71.6,61.0,29.85,East,86,6.0,9.0,69,0.00,,,0.00,weatherlink.com 1.10,2013-05-09 23:24:00,
2013-05-09 18:30:00,71.6,60.9,29.85,East,99,6.0,6.0,69,0.00,,,0.00,Wunderground v.1.15,2013-05-09 23:30:00,
2013-05-09 18:35:00,71.8,61.1,29.85,East,99,4.0,6.0,69,0.00,,,0.00,Wunderground v.1.15,2013-05-09 23:35:00,
2013-05-09 18:38:00,71.8,61.0,29.85,East,95,5.0,7.0,69,0.00,,,0.00,weatherlink.com 1.10,2013-05-09 23:38:00,
2013-05-09 18:45:00,71.8,61.1,29.84,ESE,113,4.0,7.0,69,0.00,,,0.00,Wunderground v.1.15,2013-05-09 23:45:00,
2013-05-09 18:50:00,71.8,61.1,29.84,East,90,4.0,7.0,69,0.00,,,0.00,Wunderground v.1.15,2013-05-09 23:50:00,
2013-05-09 18:54:00,71.8,61.0,29.84,SE,138,7.0,9.0,69,0.00,,,0.00,weatherlink.com 1.10,2013-05-09 23:54:00,
2013-05-09 19:00:00,71.5,60.4,29.83,SE,132,5.0,5.0,68,0.00,,,0.00,Wunderground v.1.15,2013-05-10 00:00:00,
2013-05-09 19:05:00,71.3,60.6,29.83,SE,140,5.0,5.0,69,0.00,,,0.00,Wunderground v.1.15,2013-05-10 00:05:00,
2013-05-09 19:09:00,71.2,61.0,29.84,ESE,105,3.0,7.0,69,0.00,,,0.00,weatherlink.com 1.10,2013-05-10 00:09:00,
2013-05-09 19:15:00,71.2,60.5,29.84,East,89,3.0,5.0,69,0.00,,,0.00,Wunderground v.1.15,2013-05-10 00:15:00,
2013-05-09 19:20:00,71.2,60.5,29.85,East,89,1.0,1.0,69,0.00,,,0.00,Wunderground v.1.15,2013-05-10 00:20:00,
2013-05-09 19:24:00,71.3,61.0,29.86,East,90,0.0,3.0,69,0.00,,,0.00,weatherlink.com 1.10,2013-05-10 00:24:00,
2013-05-09 19:30:00,71.7,60.6,29.86,East,90,0.0,2.0,68,0.00,,,0.00,Wunderground v.1.15,2013-05-10 00:30:00,
2013-05-09 19:35:00,71.8,60.2,29.86,East,95,1.0,2.0,67,0.00,,,0.00,Wunderground v.1.15,2013-05-10 00:35:00,
2013-05-09 19:39:00,71.7,61.0,29.86,East,95,1.0,3.0,68,0.00,,,0.00,weatherlink.com 1.10,2013-05-10 00:39:00,
2013-05-09 19:45:00,71.5,60.8,29.86,East,95,1.0,5.0,69,0.00,,,0.00,Wunderground v.1.15,2013-05-10 00:45:00,
2013-05-09 19:50:00,71.3,60.6,29.86,East,87,2.0,3.0,69,0.00,,,0.00,Wunderground v.1.15,2013-05-10 00:50:00,
2013-05-09 19:54:00,71.2,61.0,29.86,East,87,3.0,6.0,70,0.00,,,0.00,weatherlink.com 1.10,2013-05-10 00:54:00,
2013-05-09 20:00:00,70.9,60.6,29.87,East,87,2.0,2.0,70,0.00,,,0.00,Wunderground v.1.15,2013-05-10 01:00:00,
2013-05-09 20:09:00,70.8,61.0,29.88,NE,48,2.0,5.0,71,0.00,,,0.00,weatherlink.com 1.10,2013-05-10 01:09:00,
2013-05-09 20:15:00,70.7,61.2,29.88,NE,48,2.0,3.0,72,0.00,,,0.00,Wunderground v.1.15,2013-05-10 01:15:00,
2013-05-09 20:20:00,70.6,61.1,29.89,East,86,2.0,3.0,72,0.00,,,0.00,Wunderground v.1.15,2013-05-10 01:20:00,
2013-05-09 20:24:00,70.4,61.0,29.89,East,81,5.0,5.0,73,0.00,,,0.00,weatherlink.com 1.10,2013-05-10 01:24:00,
2013-05-09 20:30:00,70.1,61.4,29.89,East,85,3.0,5.0,74,0.00,,,0.00,Wunderground v.1.15,2013-05-10 01:30:00,
2013-05-09 20:39:00,69.9,62.0,29.90,ENE,58,1.0,5.0,76,0.00,,,0.00,weatherlink.com 1.10,2013-05-10 01:39:00,
2013-05-09 20:45:00,69.7,62.2,29.90,ESE,107,2.0,5.0,77,0.00,,,0.00,Wunderground v.1.15,2013-05-10 01:45:00,
2013-05-09 20:50:00,69.4,62.2,29.90,ESE,107,3.0,3.0,78,0.00,,,0.00,Wunderground v.1.15,2013-05-10 01:50:00,
2013-05-09 20:54:00,69.1,62.0,29.90,ESE,108,5.0,5.0,79,0.00,,,0.00,weatherlink.com 1.10,2013-05-10 01:54:00,
2013-05-09 21:00:00,68.7,62.3,29.90,ESE,121,3.0,3.0,80,0.00,,,0.00,Wunderground v.1.15,2013-05-10 02:00:00,
2013-05-09 21:05:00,68.4,62.0,29.91,ESE,121,2.0,3.0,80,0.00,,,0.00,Wunderground v.1.15,2013-05-10 02:05:00,
2013-05-09 21:09:00,68.3,62.0,29.90,ESE,121,2.0,2.0,81,0.00,,,0.00,weatherlink.com 1.10,2013-05-10 02:09:00,
2013-05-09 21:10:00,68.3,62.2,29.90,ESE,121,1.0,3.0,81,0.00,,,0.00,Wunderground v.1.15,2013-05-10 02:10:00,
2013-05-09 21:15:00,68.1,62.0,29.90,ESE,121,1.0,3.0,81,0.00,,,0.00,Wunderground v.1.15,2013-05-10 02:15:00,
2013-05-09 21:20:00,68.1,62.4,29.90,ESE,119,1.0,3.0,82,0.00,,,0.00,Wunderground v.1.15,2013-05-10 02:20:00,
2013-05-09 21:24:00,67.9,62.0,29.90,ESE,119,0.0,4.0,82,0.00,,,0.00,weatherlink.com 1.10,2013-05-10 02:24:00,
2013-05-09 21:30:00,67.7,62.3,29.90,ESE,119,2.0,2.0,83,0.00,,,0.00,Wunderground v.1.15,2013-05-10 02:30:00,
2013-05-09 21:35:00,67.6,62.6,29.91,ESE,119,2.0,2.0,84,0.00,,,0.00,Wunderground v.1.15,2013-05-10 02:35:00,
2013-05-09 21:39:00,67.6,63.0,29.91,ESE,119,0.0,3.0,85,0.00,,,0.00,weatherlink.com 1.10,2013-05-10 02:39:00,
2013-05-09 21:45:00,67.4,62.7,29.92,ESE,119,1.0,2.0,85,0.00,,,0.00,Wunderground v.1.15,2013-05-10 02:45:00,
2013-05-09 21:54:00,67.2,63.0,29.92,ESE,119,1.0,3.0,86,0.00,,,0.00,weatherlink.com 1.10,2013-05-10 02:54:00,
2013-05-09 21:55:00,67.2,62.9,29.92,ESE,119,1.0,2.0,86,0.00,,,0.00,Wunderground v.1.15,2013-05-10 02:55:00,
2013-05-09 22:00:00,67.2,63.2,29.93,ESE,119,1.0,2.0,87,0.00,,,0.00,Wunderground v.1.15,2013-05-10 03:00:00,
2013-05-09 22:05:00,67.1,63.1,29.93,ESE,119,2.0,3.0,87,0.00,,,0.00,Wunderground v.1.15,2013-05-10 03:05:00,
2013-05-09 22:09:00,67.0,63.0,29.93,ESE,119,2.0,4.0,87,0.00,,,0.00,weatherlink.com 1.10,2013-05-10 03:09:00,
2013-05-09 22:15:00,66.8,63.1,29.94,ESE,119,2.0,2.0,88,0.00,,,0.00,Wunderground v.1.15,2013-05-10 03:15:00,
2013-05-09 22:20:00,66.6,62.9,29.94,ESE,119,1.0,1.0,88,0.00,,,0.00,Wunderground v.1.15,2013-05-10 03:20:00,
2013-05-09 22:25:00,66.5,62.8,29.94,ESE,119,1.0,1.0,88,0.00,,,0.00,Wunderground v.1.15,2013-05-10 03:25:00,
2013-05-09 22:26:00,66.5,63.0,29.94,ESE,119,2.0,3.0,88,0.00,,,0.00,weatherlink.com 1.10,2013-05-10 03:26:00,
2013-05-09 22:35:00,66.4,63.1,29.95,ESE,119,1.0,2.0,89,0.00,,,0.00,Wunderground v.1.15,2013-05-10 03:35:00,
2013-05-09 22:40:00,66.4,63.1,29.95,ESE,119,1.0,1.0,89,0.00,,,0.00,Wunderground v.1.15,2013-05-10 03:40:00,
2013-05-09 22:41:00,66.4,63.0,29.95,ESE,119,0.0,2.0,89,0.00,,,0.00,weatherlink.com 1.10,2013-05-10 03:41:00,
2013-05-09 22:55:00,66.3,63.3,29.95,ESE,119,0.0,0.0,90,0.00,,,0.00,Wunderground v.1.15,2013-05-10 03:55:00,
2013-05-09 22:56:00,66.4,64.0,29.96,ESE,119,0.0,1.0,90,0.00,,,0.00,weatherlink.com 1.10,2013-05-10 03:56:00,
2013-05-09 23:05:00,66.4,63.1,29.96,ESE,119,0.0,0.0,89,0.00,,,0.00,Wunderground v.1.15,2013-05-10 04:05:00,
2013-05-09 23:11:00,66.3,63.0,29.96,ESE,119,0.0,1.0,89,0.00,,,0.00,weatherlink.com 1.10,2013-05-10 04:11:00,
2013-05-09 23:15:00,66.2,62.9,29.95,ESE,119,0.0,0.0,89,0.00,,,0.00,Wunderground v.1.15,2013-05-10 04:15:00,
2013-05-09 23:20:00,66.1,62.8,29.95,ESE,119,0.0,0.0,89,0.00,,,0.00,Wunderground v.1.15,2013-05-10 04:20:00,
2013-05-09 23:25:00,66.0,62.7,29.95,ESE,119,1.0,2.0,89,0.00,,,0.00,Wunderground v.1.15,2013-05-10 04:25:00,
2013-05-09 23:26:00,65.9,63.0,29.95,ESE,119,1.0,2.0,89,0.00,,,0.00,weatherlink.com 1.10,2013-05-10 04:26:00,
2013-05-09 23:30:00,65.6,62.3,29.95,ESE,119,1.0,1.0,89,0.00,,,0.00,Wunderground v.1.15,2013-05-10 04:30:00,
2013-05-09 23:35:00,65.3,62.3,29.94,ESE,115,2.0,2.0,90,0.00,,,0.00,Wunderground v.1.15,2013-05-10 04:35:00,
2013-05-09 23:40:00,64.8,61.8,29.94,East,99,2.0,3.0,90,0.00,,,0.00,Wunderground v.1.15,2013-05-10 04:40:00,
2013-05-09 23:41:00,64.8,62.0,29.94,East,99,3.0,5.0,90,0.00,,,0.00,weatherlink.com 1.10,2013-05-10 04:41:00,
2013-05-09 23:50:00,64.1,61.7,29.94,East,99,3.0,5.0,92,0.00,,,0.00,Wunderground v.1.15,2013-05-10 04:50:00,
2013-05-09 23:56:00,64.0,62.0,29.94,SE,133,4.0,7.0,92,0.00,,,0.00,weatherlink.com 1.10,2013-05-10 04:56:00,